Current weather by "City, St" or "zip code"  
 

Current Conditions: Brandywine Regional Airport, PA

Fair


73.0 F

Last Updated on Oct 21 2021, 12:55 pm EDT
Humidity: 44%
Wind Speed: SW 8.1 mph
Barometer 30.00 in
Dewpoint: 50.0 F
Visibility: 10.00 mi
Precip: --
Heat Index: NA
Wind Chill: NA
Current conditions at:

Brandywine Regional Airport, PA (KOQN)

Lat: 39.99011 Lon: 75.5819

Local Radar Image active severe weather and emergency alerts image image weather storm and storm spotter reports image weather observation monitoring service image
Local
Radar
Active
Alerts
Storm Reports Obs
Monitoring

Sign-up For Email & Text Message Weather Alert Notification Services



Advertise Here

Observation History for Brandywine Regional Airport, PA


Time Wind
(mph)
Vis
(mi)
Weather Precip (in) Temperature (F) Relative
Humidity
Wind
Chill
(F)
Heat
Index
(F)
Pressure
Air Dwpt altimeter
(in)
sea level
(mb)
Rmks
12:55 pm EDT SW 8.1 10.00 Fair -- 73.0 50.0 44% NA NA 30.00 M
11:55 am EDT S 4.6 10.00 Fair -- 72.0 50.0 47% NA NA 30.03 M
10:55 am EDT W 3.5 10.00 Fair -- 70.0 50.0 50% NA NA 30.04 M
9:55 am EDT W 3.5 10.00 Fair -- 64.0 50.0 60% NA NA 30.06 M
8:55 am EDT N 0.0 10.00 Fair -- 59.0 50.0 72% NA NA 30.07 M
7:55 am EDT N 0.0 10.00 Fair -- 50.0 46.4 88% NA NA 30.06 M
6:55 am EDT N 0.0 10.00 Fair -- 52.0 46.4 82% NA NA 30.07 M
5:55 am EDT N 0.0 10.00 Partly Cloudy -- 50.0 46.4 88% NA NA 30.07 M
4:55 am EDT N 0.0 10.00 Fair -- 52.0 46.4 82% NA NA 30.07 M
3:55 am EDT N 0.0 10.00 Fair -- 52.0 48.2 88% NA NA 30.07 M
2:55 am EDT N 0.0 10.00 Fair -- 52.0 48.2 88% NA NA 30.07 M
1:55 am EDT W 3.5 10.00 Fair -- 55.0 48.2 77% NA NA 30.07 M
12:55 am EDT N 0.0 10.00 Fair -- 54.0 48.2 82% NA NA 30.07 M
11:55 pm EDT N 0.0 10.00 Fair -- 54.0 50.0 88% NA NA 30.07 M
10:55 pm EDT N 0.0 10.00 Fair -- 59.0 50.0 72% NA NA 30.07 M
9:55 pm EDT SW 3.5 10.00 Fair -- 61.0 48.2 63% NA NA 30.08 M
8:55 pm EDT W 3.5 10.00 Fair -- 63.0 50.0 64% NA NA 30.07 M
7:55 pm EDT SW 3.5 10.00 Fair -- 64.0 48.2 56% NA NA 30.07 M
6:55 pm EDT W 4.6 10.00 Fair -- 66.0 48.2 52% NA NA 30.07 M
5:55 pm EDT W 3.5 10.00 Fair -- 70.0 46.4 43% NA NA 30.05 M
4:55 pm EDT W 9.2 10.00 Fair -- 73.0 48.2 41% NA NA 30.05 M
3:55 pm EDT W 8.1 G 18.4 10.00 Fair -- 73.0 46.4 38% NA NA 30.05 M
2:55 pm EDT W 10.4 G 18.4 10.00 Fair -- 75.0 48.2 39% NA NA 30.06 M
1:55 pm EDT W 10.4 10.00 Fair -- 73.0 48.2 41% NA NA 30.07 M

Regional Weather Observation


Pottstown, Pottstown Limerick Airport, PA (KPTW)

Fair with Haze
71.0 F

Philadelphia - Wings Field Airport, PA (KLOM)

Fair
74.0 F

Quakertown Airport, PA (KUKT)

Fair
73.0 F

Pennridge Airport, PA (KCKZ)

Fair
72.0 F

Chester County Airport, PA (KMQS)

Fair
73.0 F

Allentown Queen City Municipal Airport, PA (KXLL)

Fair
72.0 F

Advertise Here


Advertise Here